This demonstration page uses our WeatherBlox Daily Observations layout. Learn more.

38.88101, -77.10428

Hourly Observations for December 18, 2018

Temp ( °F °C ) Dew Point ( °F °C ) Humidity (%) Winds ( mph kmh ) Pressure ( in mb ) Visibility ( mi km ) Precip ( " mm )
12:52 am 00:52 Partly Cloudy 41 5 23 -5 49 49 NW 15 24 29.99 1016 10 16.0934 0 0
1:52 am 01:52 Mostly Cloudy 41 5 23 -5 49 49 NW 13 20 30.01 1016 10 16.0934 0 0
2:52 am 02:52 Mostly Cloudy 41 5 24 -4.4 51 51 WNW 13 20 30.02 1017 10 16.0934 0 0
3:52 am 03:52 Mostly Cloudy 41 5 24 -4.4 51 51 NW 10 17 30.04 1017 10 16.0934 0 0
4:52 am 04:52 Mostly Cloudy 41 5 24 -4.4 51 51 NW 12 19 30.06 1018 10 16.0934 0 0
5:52 am 05:52 Mostly Cloudy 39 3.9 22 -5.6 50 50 NNW 13 20 30.09 1019 10 16.0934 0 0
6:52 am 06:52 Partly Cloudy 39 3.9 21 -6.1 48 48 NW 16 26 30.11 1020 10 16.0934 0 0
7:52 am 07:52 Mostly Sunny 39 3.9 21 -6.1 48 48 NW 13 20 30.13 1020 10 16.0934 0 0
8:52 am 08:52 Mostly Sunny 41 5 22 -5.6 47 47 NW 8 13 30.15 1021 10 16.0934 0 0
9:52 am 09:52 Sunny 42 5.6 22 -5.6 45 45 NW 16 26 30.17 1022 10 16.0934 0 0
10:52 am 10:52 Sunny 43 6.1 22 -5.6 43 43 NNW 16 26 30.17 1022 10 16.0934 0 0
11:52 am 11:52 Sunny 45 7.2 22 -5.6 40 40 WNW 10 17 30.16 1021 10 16.0934 0 0
12:52 pm 12:52 Mostly Sunny 46 7.8 22 -5.6 38 38 W 12 19 30.14 1021 10 16.0934 0 0
1:52 pm 13:52 Mostly Sunny 47 8.3 22 -5.6 37 37 NW 10 17 30.14 1021 10 16.0934 0 0
2:52 pm 14:52 Mostly Sunny 47 8.3 21 -6.1 36 36 NW 14 22 30.14 1021 10 16.0934 0 0
3:52 pm 15:52 Mostly Sunny 46 7.8 20 -6.7 35 35 NW 12 19 30.16 1021 10 16.0934 0 0
4:52 pm 16:52 Mostly Clear 44 6.7 21 -6.1 40 40 NNW 12 19 30.17 1022 10 16.0934 0 0
5:52 pm 17:52 Clear 44 6.7 20 -6.7 38 38 W 6 9 30.18 1022 10 16.0934 0 0
6:52 pm 18:52 Clear 42 5.6 20 -6.7 41 41 NNW 3 6 30.19 1022 10 16.0934 0 0
7:52 pm 19:52 Clear 42 5.6 21 -6.1 43 43 Calm 30.2 1023 10 16.0934 0 0
8:52 pm 20:52 Clear 38 3.3 24 -4.4 57 57 N 8 13 30.2 1023 10 16.0934 0 0
9:52 pm 21:52 Mostly Clear 39 3.9 23 -5 53 53 N 6 9 30.2 1023 10 16.0934 0 0
10:52 pm 22:52 Mostly Clear 37 2.8 25 -3.9 62 62 SSW 5 7 30.19 1023 10 16.0934 0 0
11:52 pm 23:52 Mostly Clear 35 1.7 25 -3.9 67 67 SW 6 9 30.19 1022 10 16.0934 0 0

Powered by AerisWeather